Simultaneous Nadir Overpasses (SNOs) Predictions

Prediction of SNOs between LANDSAT-8 and METOP-A Satellite Orbit:

Table of predicted SNOs for the next 14.0 days since TLE Epoch: 10/15/2017
Index Date (LANDSAT-8) Time (LANDSAT-8) Lat,Lon (LANDSAT-8) SZA (LANDSAT-8 ) Date (METOP-A) Time (METOP-A) Lat,Lon (METOP-A) SZA (METOP-A ) Distance(km) Time Diff (sec)
1 10/16/2017 20:36:30 81.26, -86.99 93.01 10/16/2017 20:36:22 81.25, -87.18 92.99 3.16 8
2 10/16/2017 21:25:56 -81.28, 81.01 86.92 10/16/2017 21:27:00 -81.28, 81.13 86.88 1.98 64
3 10/19/2017 16:10:45 81.27, -20.37 94.07 10/19/2017 16:10:40 81.27, -20.26 94.08 1.84 5
4 10/19/2017 17:00:12 -81.27, 147.28 85.92 10/19/2017 17:01:20 -81.27, 147.28 85.89 0.23 68
5 10/22/2017 10:56:06 -80.40,-132.79 86.74 10/22/2017 10:54:52 -80.72,-133.88 86.60 40.57 74
6 10/22/2017 11:45:00 81.25, 45.84 95.05 10/22/2017 11:44:59 81.26, 45.86 95.05 0.57 1
7 10/22/2017 12:34:26 -81.28,-146.12 84.89 10/22/2017 12:35:38 -81.27,-146.20 84.87 1.52 72
8 10/25/2017 06:29:50 -81.24, -55.62 84.03 10/25/2017 06:28:39 -81.24, -55.71 84.07 1.63 71
9 10/25/2017 07:19:15 81.26, 112.38 96.04 10/25/2017 07:19:18 81.26, 112.34 96.04 0.52 3
10 10/28/2017 02:04:05 -81.24, 10.89 83.06 10/28/2017 02:02:58 -81.24, 10.76 83.10 2.19 67




NCC Satellite Simultaneous Nadir Overpasses (SNOs) Prediction Service
